FW4469 Weather Reports


Display with metric or nautical units.
time (UTC)temp
F
wind
direction
speed
MPH
gust
MPH
rain 1hr
in
rain 24hr
in
rain mn
in
humidity
%
barometer
mb
20260906101008 62 308 3.0 5.0 0.00 0.03 0.03 80 1021.1
20260906100008 61 313 3.0 6.0 0.00 0.03 0.03 81 1021.0
20260906095003 60 319 3.0 5.0 0.00 0.03 0.03 81 1021.3
20260906094008 60 314 3.0 5.0 0.00 0.03 0.03 84 1021.3
20260906093008 60 314 3.0 7.0 0.00 0.03 0.03 84 1021.2
20260906092008 60 308 3.0 5.0 0.00 0.03 0.03 84 1021.3
20260906091008 60 312 3.0 5.0 0.00 0.03 0.03 86 1021.3
20260906090222 60 309 2.0 5.0 0.00 0.03 0.03 86 1021.5
20260906085218 59 312 3.0 6.0 0.00 0.03 0.03 85 1021.6
20260906084003 59 324 4.0 10.0 0.00 0.03 0.03 86 1021.5
20260906083218 58 319 4.0 10.0 0.00 0.03 0.03 84 1021.5
20260906082218 58 308 3.0 8.0 0.00 0.03 0.03 85 1021.6
20260906081008 57 319 3.0 7.0 0.00 0.03 0.03 86 1021.4
20260906080011 58 304 2.0 9.0 0.00 0.03 0.03 87 1021.7
20260906075009 57 320 3.0 9.0 0.00 0.03 0.03 88 1021.6
20260906074003 57 316 2.0 8.0 0.00 0.03 0.03 89 1021.5
20260906073008 56 331 3.0 9.0 0.00 0.03 0.03 90 1021.7
20260906072008 56 302 2.0 6.0 0.00 0.03 0.03 91 1021.7
20260906071008 56 303 2.0 6.0 0.00 0.03 0.03 92 1021.7
20260906070003 55 287 2.0 6.0 0.00 0.03 0.03 93 1021.4
20260906065003 55 291 2.0 6.0 0.02 0.03 0.03 94 1021.5
20260906064008 54 321 2.0 5.0 0.03 0.03 0.03 93 1021.7
20260906063223 54 333 2.0 6.0 0.03 0.03 0.03 92 1021.4
20260906062008 53 298 2.0 6.0 0.03 0.03 0.03 93 1021.3
20260906061005 53 309 1.0 5.0 0.03 0.03 0.03 91 1021.7
20260906060003 54 314 2.0 7.0 0.03 0.03 0.03 91 1021.6
20260906055223 54 319 3.0 8.0 0.02 0.02 0.02 91 1021.7
20260906054008 55 284 2.0 7.0 0.00 0.00 0.00 91 1021.6
20260906053003 55 297 2.0 5.0 0.00 0.00 0.00 91 1021.8
20260906052008 55 301 2.0 6.0 0.00 0.00 0.00 91 1022.1
20260906051217 55 335 4.0 8.0 0.00 0.00 0.00 90 1022.0
20260906050003 55 329 4.0 8.0 0.00 0.00 0.00 86 1022.1
20260906045003 54 319 3.0 8.0 0.00 0.00 0.00 85 1022.3
20260906044003 54 291 2.0 7.0 0.00 0.00 0.00 85 1022.3
20260906043008 54 327 2.0 6.0 0.00 0.00 0.00 84 1022.6
20260906042008 54 310 3.0 8.0 0.00 0.00 0.00 83 1022.6
20260906041223 54 346 6.0 13.0 0.00 0.00 0.00 83 1022.7
20260906040218 54 345 4.0 8.0 0.00 0.00 0.00 82 1022.8
20260906035003 54 321 3.0 7.0 0.00 0.00 0.00 83 1023.0
20260906034003 54 328 3.0 8.0 0.00 0.00 0.00 83 1022.9
20260906033003 54 285 2.0 3.0 0.00 0.00 0.00 84 1022.9
20260906032003 54 310 2.0 4.0 0.00 0.00 0.00 84 1023.1
20260906031003 53 322 3.0 4.0 0.00 0.00 0.00 84 1023.1
20260906030006 53 321 2.0 4.0 0.00 0.00 0.00 84 1023.3
20260906025003 53 325 2.0 4.0 0.00 0.00 0.00 84 1023.3
20260906024218 53 324 2.0 4.0 0.00 0.00 0.00 85 1023.3
20260906023222 53 319 3.0 5.0 0.00 0.00 0.00 85 1023.4
20260906022003 53 331 2.0 5.0 0.00 0.00 0.00 86 1023.7
20260906021008 53 321 2.0 5.0 0.00 0.00 0.00 87 1023.9
20260906020218 53 322 2.0 4.0 0.00 0.00 0.00 87 1024.0
20260906015004 53 332 3.0 5.0 0.00 0.00 0.00 86 1024.1
20260906014218 53 327 3.0 5.0 0.00 0.00 0.00 86 1024.1
20260906013008 53 326 2.0 3.0 0.00 0.00 0.00 86 1024.3
20260906012003 53 324 2.0 3.0 0.00 0.00 0.00 85 1024.4
20260906011008 54 318 3.0 4.0 0.00 0.00 0.00 86 1024.4
20260906010003 54 322 3.0 4.0 0.00 0.00 0.00 86 1024.5
20260906005003 54 316 3.0 4.0 0.00 0.00 0.00 87 1024.6
20260906004223 54 318 3.0 4.0 0.00 0.00 0.00 88 1024.7
20260906003003 53 320 2.0 4.0 0.00 0.00 0.00 89 1024.8
20260906002003 53 324 2.0 3.0 0.00 0.00 0.00 89 1024.9
20260906001003 52 326 2.0 3.0 0.00 0.00 0.00 88 1025.1
20260906000003 52 325 2.0 3.0 0.00 0.00 0.00 88 1025.3
20260905235008 52 322 2.0 3.0 0.00 0.00 0.00 87 1025.5
20260905234008 52 324 2.0 3.0 0.00 0.00 0.00 87 1025.4
20260905233008 52 325 2.0 3.0 0.00 0.00 0.00 86 1025.4
20260905232008 53 323 2.0 3.0 0.00 0.00 0.00 86 1025.3
20260905231221 53 322 2.0 3.0 0.00 0.00 0.00 86 1025.3
20260905230003 53 322 2.0 3.0 0.00 0.00 0.00 85 1025.4
20260905225008 53 322 2.0 3.0 0.00 0.00 0.00 85 1025.5
20260905224008 53 319 2.0 3.0 0.00 0.00 0.00 85 1025.4
20260905223003 53 320 2.0 3.0 0.00 0.00 0.00 85 1025.3
20260905222008 53 323 2.0 3.0 0.00 0.00 0.00 85 1025.1
20260905221008 53 322 2.0 3.0 0.00 0.00 0.00 85 1025.1
20260905220008 53 322 2.0 3.0 0.00 0.00 0.00 85 1025.4
20260905215008 53 322 2.0 3.0 0.00 0.00 0.00 84 1025.6
20260905214008 53 321 2.0 3.0 0.00 0.00 0.00 84 1025.5
20260905213222 53 321 2.0 3.0 0.00 0.00 0.00 84 1025.4
20260905212218 54 318 2.0 3.0 0.00 0.00 0.00 83 1025.7
20260905211003 53 317 2.0 3.0 0.00 0.00 0.00 83 1025.8
20260905210008 54 317 2.0 3.0 0.00 0.00 0.00 83 1025.7
20260905205008 54 323 3.0 3.0 0.00 0.00 0.00 83 1025.6
20260905204008 54 320 2.0 3.0 0.00 0.00 0.00 82 1025.7
20260905203008 54 321 2.0 3.0 0.00 0.00 0.00 81 1025.4
20260905202008 54 319 2.0 3.0 0.00 0.00 0.00 81 1025.3
20260905201008 55 316 2.0 3.0 0.00 0.00 0.00 80 1025.1
20260905200008 55 317 3.0 3.0 0.00 0.00 0.00 79 1025.0
20260905195004 55 316 2.0 3.0 0.00 0.00 0.00 79 1024.9
20260905194008 55 316 2.0 4.0 0.00 0.00 0.00 79 1025.0
20260905193003 55 316 3.0 4.0 0.00 0.00 0.00 77 1025.4
20260905192233 56 315 2.0 3.0 0.00 0.00 0.00 76 1025.1
20260905191003 56 313 2.0 3.0 0.00 0.00 0.00 74 1025.3
20260905190217 57 315 3.0 4.0 0.00 0.00 0.00 72 1025.3
20260905185003 59 316 3.0 4.0 0.00 0.00 0.00 69 1025.1
20260905184008 60 318 3.0 5.0 0.00 0.00 0.00 65 1025.1
20260905183008 62 315 3.0 4.0 0.00 0.00 0.00 63 1025.1
20260905182008 63 309 4.0 6.0 0.00 0.00 0.00 59 1025.0
20260905181008 65 313 4.0 7.0 0.00 0.00 0.00 55 1025.0
20260905180009 67 306 4.0 7.0 0.00 0.00 0.00 54 1024.9
20260905175008 67 304 4.0 8.0 0.00 0.00 0.00 53 1024.9
20260905174003 68 305 4.0 7.0 0.00 0.00 0.00 52 1025.3
20260905173008 69 303 4.0 7.0 0.00 0.00 0.00 50 1025.1
20260905172223 68 310 4.0 8.0 0.00 0.00 0.00 52 1025.1
20260905171003 69 306 5.0 7.0 0.00 0.00 0.00 50 1024.9
20260905170003 69 308 4.0 9.0 0.00 0.00 0.00 49 1025.0
20260905165222 70 305 4.0 7.0 0.00 0.00 0.00 51 1024.7
20260905164005 68 306 5.0 9.0 0.00 0.00 0.00 50 1024.4
20260905163003 69 307 5.0 7.0 0.00 0.00 0.00 50 1024.6
20260905162008 69 308 5.0 8.0 0.00 0.00 0.00 51 1024.5
20260905161008 69 306 5.0 9.0 0.00 0.00 0.00 50 1024.8
20260905160008 68 311 5.0 8.0 0.00 0.00 0.00 52 1024.9
20260905155003 67 312 4.0 8.0 0.00 0.00 0.00 53 1024.9
20260905154008 67 312 4.0 8.0 0.00 0.00 0.00 52 1024.8
20260905153003 65 309 4.0 11.0 0.00 0.00 0.00 56 1024.8
20260905152008 64 312 4.0 8.0 0.00 0.00 0.00 56 1025.0
20260905151008 67 307 5.0 11.0 0.00 0.00 0.00 52 1025.0
20260905150003 68 307 5.0 9.0 0.00 0.00 0.00 53 1025.0
20260905145224 68 304 5.0 9.0 0.00 0.00 0.00 51 1024.9
20260905144223 67 304 5.0 9.0 0.00 0.00 0.00 53 1025.0
20260905143010 67 308 4.0 8.0 0.00 0.00 0.00 53 1025.1
20260905142217 65 308 4.0 8.0 0.00 0.00 0.00 56 1024.8
20260905141217 65 312 5.0 9.0 0.00 0.00 0.00 54 1025.0
20260905140008 67 309 4.0 10.0 0.00 0.00 0.00 51 1025.0
20260905135223 68 312 5.0 12.0 0.00 0.00 0.00 49 1024.9
20260905134003 68 310 4.0 10.0 0.00 0.00 0.00 50 1024.9
20260905133008 68 311 4.0 8.0 0.00 0.00 0.00 51 1024.9
20260905132223 68 315 5.0 10.0 0.00 0.00 0.00 52 1024.8
20260905131008 66 317 4.0 8.0 0.00 0.00 0.00 54 1024.7
20260905130008 63 320 4.0 8.0 0.00 0.00 0.00 60 1024.6
20260905125003 64 309 4.0 7.0 0.00 0.00 0.00 60 1024.6
20260905124008 64 316 4.0 10.0 0.00 0.00 0.00 58 1024.7
20260905123008 64 319 4.0 9.0 0.00 0.00 0.00 56 1024.5
20260905122008 65 315 4.0 8.0 0.00 0.00 0.00 55 1024.7
20260905121003 65 313 4.0 9.0 0.00 0.00 0.00 58 1024.4
20260905120004 64 317 4.0 9.0 0.00 0.00 0.00 59 1024.3
20260905115003 63 314 4.0 9.0 0.00 0.00 0.00 57 1024.5
20260905114003 64 313 4.0 9.0 0.00 0.00 0.00 61 1024.4
20260905113003 63 315 4.0 10.0 0.00 0.00 0.00 63 1024.3
20260905112003 62 314 4.0 10.0 0.00 0.00 0.00 67 1024.4
20260905111003 61 322 4.0 8.0 0.00 0.00 0.00 64 1024.7
20260905110006 63 320 5.0 11.0 0.00 0.00 0.00 61 1024.6
20260905105003 62 317 4.0 9.0 0.00 0.00 0.00 62 1024.6
20260905104003 60 320 4.0 9.0 0.00 0.00 0.00 65 1024.8
20260905103009 60 317 4.0 7.0 0.00 0.00 0.00 69 1024.8
20260905102003 59 319 4.0 8.0 0.00 0.00 0.00 70 1024.6